Year,Month,Day,Hour,Minute,Value (Times are PST for temperature in C)
2011,08,02,00,00,17.10
2011,08,02,00,01,17.10
2011,08,02,00,02,17.10
2011,08,02,00,03,17.10
2011,08,02,00,04,17.00
2011,08,02,00,05,17.00
2011,08,02,00,06,17.00
2011,08,02,00,07,17.00
2011,08,02,00,08,17.00
2011,08,02,00,09,16.90
2011,08,02,00,10,16.90
2011,08,02,00,11,16.90
2011,08,02,00,12,16.90
2011,08,02,00,13,16.90
2011,08,02,00,14,16.80
2011,08,02,00,15,16.80
2011,08,02,00,16,16.80
2011,08,02,00,17,16.80
2011,08,02,00,18,16.80
2011,08,02,00,19,16.80
2011,08,02,00,20,16.80
2011,08,02,00,21,16.80
2011,08,02,00,22,16.70
2011,08,02,00,23,16.70
2011,08,02,00,24,16.70
2011,08,02,00,25,16.60
2011,08,02,00,26,16.60
2011,08,02,00,27,16.60
2011,08,02,00,28,16.50
2011,08,02,00,29,16.50
2011,08,02,00,30,16.50
2011,08,02,00,31,16.40
2011,08,02,00,32,16.40
2011,08,02,00,33,16.40
2011,08,02,00,34,16.40
2011,08,02,00,35,16.30
2011,08,02,00,36,16.30
2011,08,02,00,37,16.30
2011,08,02,00,38,16.30
2011,08,02,00,39,16.30
2011,08,02,00,40,16.30
2011,08,02,00,41,16.30
2011,08,02,00,42,16.20
2011,08,02,00,43,16.20
2011,08,02,00,44,16.20
2011,08,02,00,45,16.20
2011,08,02,00,46,16.10
2011,08,02,00,47,16.10
2011,08,02,00,48,16.10
2011,08,02,00,49,16.10
2011,08,02,00,50,16.10
2011,08,02,00,51,16.10
2011,08,02,00,52,16.10
2011,08,02,00,53,16.00
2011,08,02,00,54,16.00
2011,08,02,00,55,16.00
2011,08,02,00,56,16.00
2011,08,02,00,57,16.00
2011,08,02,00,58,16.00
2011,08,02,00,59,16.00
2011,08,02,01,00,16.00
2011,08,02,01,01,16.00
2011,08,02,01,02,16.00
2011,08,02,01,03,15.90
2011,08,02,01,04,15.90
2011,08,02,01,05,15.90
2011,08,02,01,06,15.90
2011,08,02,01,07,15.90
2011,08,02,01,08,15.80
2011,08,02,01,09,15.80
2011,08,02,01,10,15.80
2011,08,02,01,11,15.80
2011,08,02,01,12,15.80
2011,08,02,01,13,15.80
2011,08,02,01,14,15.80
2011,08,02,01,15,15.80
2011,08,02,01,16,15.80
2011,08,02,01,17,15.80
2011,08,02,01,18,15.80
2011,08,02,01,19,15.80
2011,08,02,01,20,15.80
2011,08,02,01,21,15.80
2011,08,02,01,22,15.80
2011,08,02,01,23,15.80
2011,08,02,01,24,15.80
2011,08,02,01,25,15.80
2011,08,02,01,26,15.90
2011,08,02,01,27,15.80
2011,08,02,01,28,15.80
2011,08,02,01,29,15.80
2011,08,02,01,30,15.80
2011,08,02,01,31,15.80
2011,08,02,01,32,15.80
2011,08,02,01,33,15.80
2011,08,02,01,34,15.80
2011,08,02,01,35,15.80
2011,08,02,01,36,15.80
2011,08,02,01,37,15.70
2011,08,02,01,38,15.70
2011,08,02,01,39,15.70
2011,08,02,01,40,15.70
2011,08,02,01,41,15.70
2011,08,02,01,42,15.70
2011,08,02,01,43,15.70
2011,08,02,01,44,15.70
2011,08,02,01,45,15.70
2011,08,02,01,46,15.70
2011,08,02,01,47,15.70
2011,08,02,01,48,15.70
2011,08,02,01,49,15.70
2011,08,02,01,50,15.70
2011,08,02,01,51,15.70
2011,08,02,01,52,15.70
2011,08,02,01,53,15.60
2011,08,02,01,54,15.60
2011,08,02,01,55,15.60
2011,08,02,01,56,15.60
2011,08,02,01,57,15.60
2011,08,02,01,58,15.60
2011,08,02,01,59,15.60
2011,08,02,02,00,15.60
2011,08,02,02,01,15.60
2011,08,02,02,02,15.60
2011,08,02,02,03,15.60
2011,08,02,02,04,15.60
2011,08,02,02,05,15.50
2011,08,02,02,06,15.50
2011,08,02,02,07,15.50
2011,08,02,02,08,15.50
2011,08,02,02,09,15.50
2011,08,02,02,10,15.50
2011,08,02,02,11,15.50
2011,08,02,02,12,15.50
2011,08,02,02,13,15.50
2011,08,02,02,14,15.50
2011,08,02,02,15,15.50
2011,08,02,02,16,15.50
2011,08,02,02,17,15.50
2011,08,02,02,18,15.50
2011,08,02,02,19,15.40
2011,08,02,02,20,15.40
2011,08,02,02,21,15.40
2011,08,02,02,22,15.40
2011,08,02,02,23,15.30
2011,08,02,02,24,15.30
2011,08,02,02,25,15.30
2011,08,02,02,26,15.30
2011,08,02,02,27,15.30
2011,08,02,02,28,15.20
2011,08,02,02,29,15.20
2011,08,02,02,30,15.20
2011,08,02,02,31,15.20
2011,08,02,02,32,15.10
2011,08,02,02,33,15.10
2011,08,02,02,34,15.10
2011,08,02,02,35,15.10
2011,08,02,02,36,15.10
2011,08,02,02,37,15.10
2011,08,02,02,38,15.10
2011,08,02,02,39,15.10
2011,08,02,02,40,15.10
2011,08,02,02,41,15.10
2011,08,02,02,42,15.10
2011,08,02,02,43,15.00
2011,08,02,02,44,15.00
2011,08,02,02,45,15.00
2011,08,02,02,46,15.00
2011,08,02,02,47,15.00
2011,08,02,02,48,14.90
2011,08,02,02,49,15.00
2011,08,02,02,50,14.90
2011,08,02,02,51,14.90
2011,08,02,02,52,14.90
2011,08,02,02,53,14.90
2011,08,02,02,54,14.90
2011,08,02,02,55,14.90
2011,08,02,02,56,14.90
2011,08,02,02,57,14.90
2011,08,02,02,58,14.90
2011,08,02,02,59,14.80
2011,08,02,03,00,14.80
2011,08,02,03,01,14.80
2011,08,02,03,02,14.80
2011,08,02,03,03,14.80
2011,08,02,03,04,14.80
2011,08,02,03,05,14.80
2011,08,02,03,06,14.80
2011,08,02,03,07,14.80
2011,08,02,03,08,14.80
2011,08,02,03,09,14.80
2011,08,02,03,10,14.80
2011,08,02,03,11,14.80
2011,08,02,03,12,14.80
2011,08,02,03,13,14.80
2011,08,02,03,14,14.80
2011,08,02,03,15,14.80
2011,08,02,03,16,14.80
2011,08,02,03,17,14.80
2011,08,02,03,18,14.70
2011,08,02,03,19,14.70
2011,08,02,03,20,14.70
2011,08,02,03,21,14.70
2011,08,02,03,22,14.70
2011,08,02,03,23,14.70
2011,08,02,03,24,14.70
2011,08,02,03,25,14.70
2011,08,02,03,26,14.70
2011,08,02,03,27,14.70
2011,08,02,03,28,14.70
2011,08,02,03,29,14.70
2011,08,02,03,30,14.70
2011,08,02,03,31,14.70
2011,08,02,03,32,14.70
2011,08,02,03,33,14.70
2011,08,02,03,34,14.70
2011,08,02,03,35,14.70
2011,08,02,03,36,14.70
2011,08,02,03,37,14.70
2011,08,02,03,38,14.70
2011,08,02,03,39,14.70
2011,08,02,03,40,14.70
2011,08,02,03,41,14.70
2011,08,02,03,42,14.70
2011,08,02,03,43,14.70
2011,08,02,03,44,14.70
2011,08,02,03,45,14.70
2011,08,02,03,46,14.70
2011,08,02,03,47,14.70
2011,08,02,03,48,14.70
2011,08,02,03,49,14.70
2011,08,02,03,50,14.70
2011,08,02,03,51,14.70
2011,08,02,03,52,14.70
2011,08,02,03,53,14.70
2011,08,02,03,54,14.70
2011,08,02,03,55,14.70
2011,08,02,03,56,14.70
2011,08,02,03,57,14.70
2011,08,02,03,58,14.70
2011,08,02,03,59,14.70
2011,08,02,04,00,14.70
2011,08,02,04,01,14.70
2011,08,02,04,02,14.70
2011,08,02,04,03,14.70
2011,08,02,04,04,14.70
2011,08,02,04,05,14.70
2011,08,02,04,06,14.70
2011,08,02,04,07,14.70
2011,08,02,04,08,14.70
2011,08,02,04,09,14.70
2011,08,02,04,10,14.70
2011,08,02,04,11,14.70
2011,08,02,04,12,14.70
2011,08,02,04,13,14.70
2011,08,02,04,14,14.70
2011,08,02,04,15,14.70
2011,08,02,04,16,14.70
2011,08,02,04,17,14.70
2011,08,02,04,18,14.70
2011,08,02,04,19,14.70
2011,08,02,04,20,14.60
2011,08,02,04,21,14.60
2011,08,02,04,22,14.60
2011,08,02,04,23,14.60
2011,08,02,04,24,14.60
2011,08,02,04,25,14.60
2011,08,02,04,26,14.60
2011,08,02,04,27,14.60
2011,08,02,04,28,14.50
2011,08,02,04,29,14.50
2011,08,02,04,30,14.50
2011,08,02,04,31,14.50
2011,08,02,04,32,14.50
2011,08,02,04,33,14.50
2011,08,02,04,34,14.40
2011,08,02,04,35,14.40
2011,08,02,04,36,14.40
2011,08,02,04,37,14.40
2011,08,02,04,38,14.40
2011,08,02,04,39,14.40
2011,08,02,04,40,14.50
2011,08,02,04,41,14.50
2011,08,02,04,42,14.50
2011,08,02,04,43,14.50
2011,08,02,04,44,14.50
2011,08,02,04,45,14.50
2011,08,02,04,46,14.50
2011,08,02,04,47,14.50
2011,08,02,04,48,14.50
2011,08,02,04,49,14.50
2011,08,02,04,50,14.50
2011,08,02,04,51,14.50
2011,08,02,04,52,14.50
2011,08,02,04,53,14.50
2011,08,02,04,54,14.50
2011,08,02,04,55,14.50
2011,08,02,04,56,14.50
2011,08,02,04,57,14.50
2011,08,02,04,58,14.50
2011,08,02,04,59,14.50
2011,08,02,05,00,14.50
2011,08,02,05,01,14.50
2011,08,02,05,02,14.50
2011,08,02,05,03,14.50
2011,08,02,05,04,14.50
2011,08,02,05,05,14.50
2011,08,02,05,06,14.50
2011,08,02,05,07,14.50
2011,08,02,05,08,14.50
2011,08,02,05,09,14.50
2011,08,02,05,10,14.50
2011,08,02,05,11,14.60
2011,08,02,05,12,14.60
2011,08,02,05,13,14.60
2011,08,02,05,14,14.60
2011,08,02,05,15,14.60
2011,08,02,05,16,14.60
2011,08,02,05,17,14.60
2011,08,02,05,18,14.60
2011,08,02,05,19,14.60
2011,08,02,05,20,14.60
2011,08,02,05,21,14.50
2011,08,02,05,22,14.50
2011,08,02,05,23,14.50
2011,08,02,05,24,14.50
2011,08,02,05,25,14.50
2011,08,02,05,26,14.50
2011,08,02,05,27,14.50
2011,08,02,05,28,14.50
2011,08,02,05,29,14.50
2011,08,02,05,30,14.40
2011,08,02,05,31,14.40
2011,08,02,05,32,14.40
2011,08,02,05,33,14.40
2011,08,02,05,34,14.50
2011,08,02,05,35,14.40
2011,08,02,05,36,14.50
2011,08,02,05,37,14.50
2011,08,02,05,38,14.50
2011,08,02,05,39,14.50
2011,08,02,05,40,14.50
2011,08,02,05,41,14.50
2011,08,02,05,42,14.50
2011,08,02,05,43,14.50
2011,08,02,05,44,14.50
2011,08,02,05,45,14.50
2011,08,02,05,46,14.50
2011,08,02,05,47,14.50
2011,08,02,05,48,14.50
2011,08,02,05,49,14.50
2011,08,02,05,50,14.50
2011,08,02,05,51,14.50
2011,08,02,05,52,14.50
2011,08,02,05,53,14.50
2011,08,02,05,54,14.50
2011,08,02,05,55,14.50
2011,08,02,05,56,14.50
2011,08,02,05,57,14.50
2011,08,02,05,58,14.50
2011,08,02,05,59,14.50
2011,08,02,06,00,14.50
2011,08,02,06,01,14.50
2011,08,02,06,02,14.50
2011,08,02,06,03,14.50
2011,08,02,06,04,14.50
2011,08,02,06,05,14.40
2011,08,02,06,06,14.40
2011,08,02,06,07,14.50
2011,08,02,06,08,14.40
2011,08,02,06,09,14.40
2011,08,02,06,10,14.40
2011,08,02,06,11,14.40
2011,08,02,06,12,14.40
2011,08,02,06,13,14.40
2011,08,02,06,14,14.50
2011,08,02,06,15,14.50
2011,08,02,06,16,14.50
2011,08,02,06,17,14.50
2011,08,02,06,18,14.50
2011,08,02,06,19,14.50
2011,08,02,06,20,14.50
2011,08,02,06,21,14.50
2011,08,02,06,22,14.50
2011,08,02,06,23,14.50
2011,08,02,06,24,14.40
2011,08,02,06,25,14.40
2011,08,02,06,26,14.40
2011,08,02,06,27,14.40
2011,08,02,06,28,14.40
2011,08,02,06,29,14.40
2011,08,02,06,30,14.40
2011,08,02,06,31,14.50
2011,08,02,06,32,14.50
2011,08,02,06,33,14.50
2011,08,02,06,34,14.50
2011,08,02,06,35,14.50
2011,08,02,06,36,14.50
2011,08,02,06,37,14.50
2011,08,02,06,38,14.50
2011,08,02,06,39,14.50
2011,08,02,06,40,14.50
2011,08,02,06,41,14.50
2011,08,02,06,42,14.60
2011,08,02,06,43,14.50
2011,08,02,06,44,14.60
2011,08,02,06,45,14.60
2011,08,02,06,46,14.60
2011,08,02,06,47,14.60
2011,08,02,06,48,14.60
2011,08,02,06,49,14.60
2011,08,02,06,50,14.70
2011,08,02,06,51,14.70
2011,08,02,06,52,14.70
2011,08,02,06,53,14.70
2011,08,02,06,54,14.80
2011,08,02,06,55,14.80
2011,08,02,06,56,14.80
2011,08,02,06,57,14.80
2011,08,02,06,58,14.80
2011,08,02,06,59,14.90
2011,08,02,07,00,14.90
2011,08,02,07,01,14.90
2011,08,02,07,02,15.00
2011,08,02,07,03,15.00
2011,08,02,07,04,15.00
2011,08,02,07,05,15.10
2011,08,02,07,06,15.10
2011,08,02,07,07,15.10
2011,08,02,07,08,15.10
2011,08,02,07,09,15.10
2011,08,02,07,10,15.20
2011,08,02,07,11,15.20
2011,08,02,07,12,15.20
2011,08,02,07,13,15.20
2011,08,02,07,14,15.20
2011,08,02,07,15,15.20
2011,08,02,07,16,15.30
2011,08,02,07,17,15.30
2011,08,02,07,18,15.30
2011,08,02,07,19,15.30
2011,08,02,07,20,15.30
2011,08,02,07,21,15.30
2011,08,02,07,22,15.30
2011,08,02,07,23,15.30
2011,08,02,07,24,15.40
2011,08,02,07,25,15.40
2011,08,02,07,26,15.40
2011,08,02,07,27,15.40
2011,08,02,07,28,15.40
2011,08,02,07,29,15.40
2011,08,02,07,30,15.40
2011,08,02,07,31,15.50
2011,08,02,07,32,15.50
2011,08,02,07,33,15.60
2011,08,02,07,34,15.60
2011,08,02,07,35,15.60
2011,08,02,07,36,15.60
2011,08,02,07,37,15.60
2011,08,02,07,38,15.60
2011,08,02,07,39,15.70
2011,08,02,07,40,15.70
2011,08,02,07,41,15.70
2011,08,02,07,42,15.80
2011,08,02,07,43,15.80
2011,08,02,07,44,15.80
2011,08,02,07,45,15.80
2011,08,02,07,46,15.90
2011,08,02,07,47,15.90
2011,08,02,07,48,15.90
2011,08,02,07,49,16.00
2011,08,02,07,50,16.00
2011,08,02,07,51,16.10
2011,08,02,07,52,16.10
2011,08,02,07,53,16.10
2011,08,02,07,54,16.20
2011,08,02,07,55,16.20
2011,08,02,07,56,16.20
2011,08,02,07,57,16.20
2011,08,02,07,58,16.20
2011,08,02,07,59,16.20
2011,08,02,08,00,16.20
2011,08,02,08,01,16.20
2011,08,02,08,02,16.20
2011,08,02,08,03,16.20
2011,08,02,08,04,16.30
2011,08,02,08,05,16.30
2011,08,02,08,06,16.30
2011,08,02,08,07,16.30
2011,08,02,08,08,16.30
2011,08,02,08,09,16.30
2011,08,02,08,10,16.40
2011,08,02,08,11,16.40
2011,08,02,08,12,16.40
2011,08,02,08,13,16.40
2011,08,02,08,14,16.40
2011,08,02,08,15,16.50
2011,08,02,08,16,16.50
2011,08,02,08,17,16.50
2011,08,02,08,18,16.60
2011,08,02,08,19,16.60
2011,08,02,08,20,16.60
2011,08,02,08,21,16.60
2011,08,02,08,22,16.60
2011,08,02,08,23,16.60
2011,08,02,08,24,16.70
2011,08,02,08,25,16.70
2011,08,02,08,26,16.70
2011,08,02,08,27,16.80
2011,08,02,08,28,16.80
2011,08,02,08,29,16.80
2011,08,02,08,30,16.90
2011,08,02,08,31,16.90
2011,08,02,08,32,16.90
2011,08,02,08,33,16.90
2011,08,02,08,34,16.90
2011,08,02,08,35,16.90
2011,08,02,08,36,17.00
2011,08,02,08,37,17.00
2011,08,02,08,38,17.00
2011,08,02,08,39,17.00
2011,08,02,08,40,17.10
2011,08,02,08,41,17.10
2011,08,02,08,42,17.10
2011,08,02,08,43,17.10
2011,08,02,08,44,17.10
2011,08,02,08,45,17.10
2011,08,02,08,46,17.10
2011,08,02,08,47,17.10
2011,08,02,08,48,17.10
2011,08,02,08,49,17.10
2011,08,02,08,50,17.10
2011,08,02,08,51,17.10
2011,08,02,08,52,17.10
2011,08,02,08,53,17.10
2011,08,02,08,54,17.10
2011,08,02,08,55,17.10
2011,08,02,08,56,17.10
2011,08,02,08,57,17.10
2011,08,02,08,58,17.10
2011,08,02,08,59,17.10
2011,08,02,09,00,17.20
2011,08,02,09,01,17.20
2011,08,02,09,02,17.20
2011,08,02,09,03,17.20
2011,08,02,09,04,17.20
2011,08,02,09,05,17.20
2011,08,02,09,06,17.30
2011,08,02,09,07,17.30
2011,08,02,09,08,17.30
2011,08,02,09,09,17.30
2011,08,02,09,10,17.30
2011,08,02,09,11,17.40
2011,08,02,09,12,17.40
2011,08,02,09,13,17.40
2011,08,02,09,14,17.40
2011,08,02,09,15,17.40
2011,08,02,09,16,17.40
2011,08,02,09,17,17.40
2011,08,02,09,18,17.50
2011,08,02,09,19,17.50
2011,08,02,09,20,17.50
2011,08,02,09,21,17.60
2011,08,02,09,22,17.60
2011,08,02,09,23,17.60
2011,08,02,09,24,17.60
2011,08,02,09,25,17.60
2011,08,02,09,26,17.60
2011,08,02,09,27,17.60
2011,08,02,09,28,17.60
2011,08,02,09,29,17.60
2011,08,02,09,30,17.60
2011,08,02,09,31,17.60
2011,08,02,09,32,17.60
2011,08,02,09,33,17.60
2011,08,02,09,34,17.60
2011,08,02,09,35,17.60
2011,08,02,09,36,17.60
2011,08,02,09,37,17.60
2011,08,02,09,38,17.60
2011,08,02,09,39,17.60
2011,08,02,09,40,17.60
2011,08,02,09,41,17.60
2011,08,02,09,42,17.70
2011,08,02,09,43,17.70
2011,08,02,09,44,17.70
2011,08,02,09,45,17.70
2011,08,02,09,46,17.70
2011,08,02,09,47,17.70
2011,08,02,09,48,17.70
2011,08,02,09,49,17.70
2011,08,02,09,50,17.80
2011,08,02,09,51,17.80
2011,08,02,09,52,17.80
2011,08,02,09,53,17.80
2011,08,02,09,54,17.90
2011,08,02,09,55,17.90
2011,08,02,09,56,17.90
2011,08,02,09,57,17.90
2011,08,02,09,58,17.90
2011,08,02,09,59,17.90
2011,08,02,10,00,17.90
2011,08,02,10,01,17.90
2011,08,02,10,02,17.90
2011,08,02,10,03,17.90
2011,08,02,10,04,17.90
2011,08,02,10,05,17.90
2011,08,02,10,06,17.90
2011,08,02,10,07,17.80
2011,08,02,10,08,17.80
2011,08,02,10,09,17.80
2011,08,02,10,10,17.80
2011,08,02,10,11,17.80
2011,08,02,10,12,17.80
2011,08,02,10,13,17.90
2011,08,02,10,14,17.90
2011,08,02,10,15,17.90
2011,08,02,10,16,17.90
2011,08,02,10,17,17.90
2011,08,02,10,18,17.90
2011,08,02,10,19,17.90
2011,08,02,10,20,17.90
2011,08,02,10,21,18.00
2011,08,02,10,22,18.00
2011,08,02,10,23,18.00
2011,08,02,10,24,18.00
2011,08,02,10,25,18.00
2011,08,02,10,26,17.90
2011,08,02,10,27,17.90
2011,08,02,10,28,17.90
2011,08,02,10,29,17.80
2011,08,02,10,30,17.80
2011,08,02,10,31,17.80
2011,08,02,10,32,17.80
2011,08,02,10,33,17.80
2011,08,02,10,34,17.80
2011,08,02,10,35,17.80
2011,08,02,10,36,17.80
2011,08,02,10,37,17.80
2011,08,02,10,38,17.80
2011,08,02,10,39,17.80
2011,08,02,10,40,17.80
2011,08,02,10,41,17.80
2011,08,02,10,42,17.80
2011,08,02,10,43,17.80
2011,08,02,10,44,17.70
2011,08,02,10,45,17.70
2011,08,02,10,46,17.70
2011,08,02,10,47,17.70
2011,08,02,10,48,17.70
2011,08,02,10,49,17.70
2011,08,02,10,50,17.70
2011,08,02,10,51,17.70
2011,08,02,10,52,17.70
2011,08,02,10,53,17.70
2011,08,02,10,54,17.70
2011,08,02,10,55,17.80
2011,08,02,10,56,17.80
2011,08,02,10,57,17.80
2011,08,02,10,58,17.80
2011,08,02,10,59,17.80
2011,08,02,11,00,17.90
2011,08,02,11,01,17.90
2011,08,02,11,02,18.00
2011,08,02,11,03,18.10
2011,08,02,11,04,18.10
2011,08,02,11,05,18.20
2011,08,02,11,06,18.20
2011,08,02,11,07,18.30
2011,08,02,11,08,18.30
2011,08,02,11,09,18.30
2011,08,02,11,10,18.30
2011,08,02,11,11,18.40
2011,08,02,11,12,18.50
2011,08,02,11,13,18.60
2011,08,02,11,14,18.70
2011,08,02,11,15,18.80
2011,08,02,11,16,18.80
2011,08,02,11,17,18.90
2011,08,02,11,18,19.00
2011,08,02,11,19,19.00
2011,08,02,11,20,19.00
2011,08,02,11,21,19.00
2011,08,02,11,22,19.00
2011,08,02,11,23,19.10
2011,08,02,11,24,19.10
2011,08,02,11,25,19.20
2011,08,02,11,26,19.20
2011,08,02,11,27,19.20
2011,08,02,11,28,19.20
2011,08,02,11,29,19.20
2011,08,02,11,30,19.30
2011,08,02,11,31,19.30
2011,08,02,11,32,19.50
2011,08,02,11,33,19.60
2011,08,02,11,34,19.70
2011,08,02,11,35,19.90
2011,08,02,11,36,20.00
2011,08,02,11,37,20.10
2011,08,02,11,38,20.20
2011,08,02,11,39,20.20
2011,08,02,11,40,20.20
2011,08,02,11,41,20.20
2011,08,02,11,42,20.20
2011,08,02,11,43,20.20
2011,08,02,11,44,20.20
2011,08,02,11,45,20.20
2011,08,02,11,46,20.20
2011,08,02,11,47,20.20
2011,08,02,11,48,20.20
2011,08,02,11,49,20.20
2011,08,02,11,50,20.20
2011,08,02,11,51,20.30
2011,08,02,11,52,20.30
2011,08,02,11,53,20.30
2011,08,02,11,54,20.40
2011,08,02,11,55,20.40
2011,08,02,11,56,20.30
2011,08,02,11,57,20.40
2011,08,02,11,58,20.40
2011,08,02,11,59,20.50
2011,08,02,12,00,20.60
2011,08,02,12,01,20.60
2011,08,02,12,02,20.60
2011,08,02,12,03,20.60
2011,08,02,12,04,20.60
2011,08,02,12,05,20.60
2011,08,02,12,06,20.60
2011,08,02,12,07,20.60
2011,08,02,12,08,20.60
2011,08,02,12,09,20.70
2011,08,02,12,10,20.70
2011,08,02,12,11,20.80
2011,08,02,12,12,20.80
2011,08,02,12,13,20.90
2011,08,02,12,14,21.00
2011,08,02,12,15,21.10
2011,08,02,12,16,21.30
2011,08,02,12,17,21.30
2011,08,02,12,18,21.30
2011,08,02,12,19,21.30
2011,08,02,12,20,21.20
2011,08,02,12,21,21.20
2011,08,02,12,22,21.10
2011,08,02,12,23,21.10
2011,08,02,12,24,21.20
2011,08,02,12,25,21.20
2011,08,02,12,26,21.30
2011,08,02,12,27,21.30
2011,08,02,12,28,21.50
2011,08,02,12,29,21.60
2011,08,02,12,30,21.70
2011,08,02,12,31,21.80
2011,08,02,12,32,21.90
2011,08,02,12,33,22.00
2011,08,02,12,34,21.90
2011,08,02,12,35,21.90
2011,08,02,12,36,21.90
2011,08,02,12,37,21.90
2011,08,02,12,38,21.90
2011,08,02,12,39,21.90
2011,08,02,12,40,21.90
2011,08,02,12,41,22.00
2011,08,02,12,42,22.10
2011,08,02,12,43,22.10
2011,08,02,12,44,22.20
2011,08,02,12,45,22.20
2011,08,02,12,46,22.30
2011,08,02,12,47,22.40
2011,08,02,12,48,22.40
2011,08,02,12,49,22.40
2011,08,02,12,50,22.30
2011,08,02,12,51,22.20
2011,08,02,12,52,22.20
2011,08,02,12,53,22.10
2011,08,02,12,54,22.00
2011,08,02,12,55,21.90
2011,08,02,12,56,21.90
2011,08,02,12,57,21.90
2011,08,02,12,58,21.90
2011,08,02,12,59,21.90
2011,08,02,13,00,21.90
2011,08,02,13,01,21.90
2011,08,02,13,02,21.80
2011,08,02,13,03,21.80
2011,08,02,13,04,21.80
2011,08,02,13,05,21.70
2011,08,02,13,06,21.70
2011,08,02,13,07,21.70
2011,08,02,13,08,21.70
2011,08,02,13,09,21.80
2011,08,02,13,10,21.80
2011,08,02,13,11,21.80
2011,08,02,13,12,21.80
2011,08,02,13,13,21.90
2011,08,02,13,14,22.00
2011,08,02,13,15,22.10
2011,08,02,13,16,22.20
2011,08,02,13,17,22.20
2011,08,02,13,18,22.20
2011,08,02,13,19,22.20
2011,08,02,13,20,22.20
2011,08,02,13,21,22.20
2011,08,02,13,22,22.20
2011,08,02,13,23,22.20
2011,08,02,13,24,22.20
2011,08,02,13,25,22.20
2011,08,02,13,26,22.20
2011,08,02,13,27,22.30
2011,08,02,13,28,22.30
2011,08,02,13,29,22.40
2011,08,02,13,30,22.40
2011,08,02,13,31,22.50
2011,08,02,13,32,22.50
2011,08,02,13,33,22.60
2011,08,02,13,34,22.50
2011,08,02,13,35,22.50
2011,08,02,13,36,22.50
2011,08,02,13,37,22.50
2011,08,02,13,38,22.60
2011,08,02,13,39,22.70
2011,08,02,13,40,22.70
2011,08,02,13,41,22.80
2011,08,02,13,42,22.80
2011,08,02,13,43,22.80
2011,08,02,13,44,22.70
2011,08,02,13,45,22.70
2011,08,02,13,46,22.70
2011,08,02,13,47,22.80
2011,08,02,13,48,22.80
2011,08,02,13,49,22.80
2011,08,02,13,50,22.80
2011,08,02,13,51,22.80
2011,08,02,13,52,22.80
2011,08,02,13,53,22.80
2011,08,02,13,54,22.80
2011,08,02,13,55,22.70
2011,08,02,13,56,22.70
2011,08,02,13,57,22.80
2011,08,02,13,58,22.90
2011,08,02,13,59,23.00
2011,08,02,14,00,23.10
2011,08,02,14,01,23.30
2011,08,02,14,02,23.30
2011,08,02,14,03,23.40
2011,08,02,14,04,23.40
2011,08,02,14,05,23.40
2011,08,02,14,06,23.50
2011,08,02,14,07,23.50
2011,08,02,14,08,23.60
2011,08,02,14,09,23.60
2011,08,02,14,10,23.50
2011,08,02,14,11,23.40
2011,08,02,14,12,23.40
2011,08,02,14,13,23.40
2011,08,02,14,14,23.40
2011,08,02,14,15,23.40
2011,08,02,14,16,23.50
2011,08,02,14,17,23.60
2011,08,02,14,18,23.70
2011,08,02,14,19,23.80
2011,08,02,14,20,23.90
2011,08,02,14,21,23.90
2011,08,02,14,22,24.00
2011,08,02,14,23,24.10
2011,08,02,14,24,24.10
2011,08,02,14,25,24.10
2011,08,02,14,26,24.10
2011,08,02,14,27,24.10
2011,08,02,14,28,24.10
2011,08,02,14,29,24.00
2011,08,02,14,30,24.00
2011,08,02,14,31,24.00
2011,08,02,14,32,23.90
2011,08,02,14,33,23.90
2011,08,02,14,34,23.90
2011,08,02,14,35,24.00
2011,08,02,14,36,24.20
2011,08,02,14,37,24.30
2011,08,02,14,38,24.30
2011,08,02,14,39,24.30
2011,08,02,14,40,24.30
2011,08,02,14,41,24.30
2011,08,02,14,42,24.40
2011,08,02,14,43,24.40
2011,08,02,14,44,24.40
2011,08,02,14,45,24.50
2011,08,02,14,46,24.60
2011,08,02,14,47,24.70
2011,08,02,14,48,24.70
2011,08,02,14,49,24.70
2011,08,02,14,50,24.70
2011,08,02,14,51,24.70
2011,08,02,14,52,24.70
2011,08,02,14,53,24.80
2011,08,02,14,54,24.80
2011,08,02,14,55,24.80
2011,08,02,14,56,24.80
2011,08,02,14,57,24.80
2011,08,02,14,58,24.70
2011,08,02,14,59,24.70
2011,08,02,15,00,24.60
2011,08,02,15,01,24.60
2011,08,02,15,02,24.50
2011,08,02,15,03,24.50
2011,08,02,15,04,24.60
2011,08,02,15,05,24.70
2011,08,02,15,06,24.80
2011,08,02,15,07,24.90
2011,08,02,15,08,25.00
2011,08,02,15,09,25.10
2011,08,02,15,10,25.10
2011,08,02,15,11,25.10
2011,08,02,15,12,25.10
2011,08,02,15,13,25.20
2011,08,02,15,14,25.10
2011,08,02,15,15,25.10
2011,08,02,15,16,25.00
2011,08,02,15,17,25.00
2011,08,02,15,18,25.10
2011,08,02,15,19,25.00
2011,08,02,15,20,24.90
2011,08,02,15,21,24.80
2011,08,02,15,22,24.70
2011,08,02,15,23,24.70
2011,08,02,15,24,24.70
2011,08,02,15,25,24.70
2011,08,02,15,26,24.70
2011,08,02,15,27,24.80
2011,08,02,15,28,24.80
2011,08,02,15,29,24.80
2011,08,02,15,30,24.80
2011,08,02,15,31,24.80
2011,08,02,15,32,24.80
2011,08,02,15,33,24.80
2011,08,02,15,34,24.80
2011,08,02,15,35,24.80
2011,08,02,15,36,24.90
2011,08,02,15,37,24.90
2011,08,02,15,38,24.80
2011,08,02,15,39,24.80
2011,08,02,15,40,24.80
2011,08,02,15,41,24.80
2011,08,02,15,42,24.90
2011,08,02,15,43,25.00
2011,08,02,15,44,25.00
2011,08,02,15,45,25.10
2011,08,02,15,46,25.20
2011,08,02,15,47,25.10
2011,08,02,15,48,25.10
2011,08,02,15,49,25.10
2011,08,02,15,50,25.10
2011,08,02,15,51,25.20
2011,08,02,15,52,25.20
2011,08,02,15,53,25.20
2011,08,02,15,54,25.20
2011,08,02,15,55,25.10
2011,08,02,15,56,25.00
2011,08,02,15,57,24.90
2011,08,02,15,58,24.90
2011,08,02,15,59,24.80
2011,08,02,16,00,24.80
2011,08,02,16,01,24.80
2011,08,02,16,02,24.70
2011,08,02,16,03,24.70
2011,08,02,16,04,24.70
2011,08,02,16,05,24.70
2011,08,02,16,06,24.70
2011,08,02,16,07,24.70
2011,08,02,16,08,24.70
2011,08,02,16,09,24.70
2011,08,02,16,10,24.70
2011,08,02,16,11,24.70
2011,08,02,16,12,24.60
2011,08,02,16,13,24.60
2011,08,02,16,14,24.60
2011,08,02,16,15,24.60
2011,08,02,16,16,24.60
2011,08,02,16,17,24.60
2011,08,02,16,18,24.50
2011,08,02,16,19,24.50
2011,08,02,16,20,24.40
2011,08,02,16,21,24.20
2011,08,02,16,22,24.10
2011,08,02,16,23,24.00
2011,08,02,16,24,23.90
2011,08,02,16,25,23.90
2011,08,02,16,26,23.90
2011,08,02,16,27,23.80
2011,08,02,16,28,23.70
2011,08,02,16,29,23.60
2011,08,02,16,30,23.50
2011,08,02,16,31,23.40
2011,08,02,16,32,23.30
2011,08,02,16,33,23.20
2011,08,02,16,34,23.10
2011,08,02,16,35,23.00
2011,08,02,16,36,23.00
2011,08,02,16,37,22.90
2011,08,02,16,38,22.80
2011,08,02,16,39,22.80
2011,08,02,16,40,22.70
2011,08,02,16,41,22.70
2011,08,02,16,42,22.70
2011,08,02,16,43,22.70
2011,08,02,16,44,22.70
2011,08,02,16,45,22.80
2011,08,02,16,46,22.80
2011,08,02,16,47,22.80
2011,08,02,16,48,22.80
2011,08,02,16,49,22.80
2011,08,02,16,50,22.80
2011,08,02,16,51,22.70
2011,08,02,16,52,22.70
2011,08,02,16,53,22.70
2011,08,02,16,54,22.70
2011,08,02,16,55,22.60
2011,08,02,16,56,22.60
2011,08,02,16,57,22.50
2011,08,02,16,58,22.50
2011,08,02,16,59,22.40
2011,08,02,17,00,22.40
2011,08,02,17,01,22.40
2011,08,02,17,02,22.40
2011,08,02,17,03,22.40
2011,08,02,17,04,22.40
2011,08,02,17,05,22.40
2011,08,02,17,06,22.40
2011,08,02,17,07,22.40
2011,08,02,17,08,22.40
2011,08,02,17,09,22.40
2011,08,02,17,10,22.40
2011,08,02,17,11,22.40
2011,08,02,17,12,22.40
2011,08,02,17,13,22.40
2011,08,02,17,14,22.40
2011,08,02,17,15,22.40
2011,08,02,17,16,22.40
2011,08,02,17,17,22.40
2011,08,02,17,18,22.50
2011,08,02,17,19,22.40